Погода в Бреле

Хорватия     43°22′02″N   16°55′57″E
темп.,
°C
ветер,
м/с
пор.,
м/с
влажн.,
%
обл.,
%
осадки,
мм/ч
давл.,
гПа
погр.,
м
22 апреля, чт
чт2223:00+11вюв457529 0.0 1021405
02:00+10в4674100 0.0 1021376
05:00+10в4672100 0.0 1021319
08:00+11в4865100 0.0 1021556
11:00+12юв6866100 0.1 10211023
14:00+12юв7872100 0.6 1020942
17:00+11всв5677100 1.3 1019333
20:00+11св4478100 2.7 1019263
23 апреля, пт
пт2323:00+11св3376100 0.2 1019234
02:00+11св3378100 0.5 1019167
05:00+11ссв2174100 0.0 1019151
08:00+12св2269100 0.0 1020167
11:00+14ююз216739 0.0 1021327
14:00+13ю327257 0.1 1021264
17:00+14юз116877 0.4 1021237
20:00+13ююз337660 0.4 1022163
24 апреля, сб
сб2423:00+12ссз2377100 0.0 1022167
02:00+11ссв446599 0.0 1021151
05:00+10св5563100 0.0 1020151
08:00+11ссв445852 0.0 1021182
11:00+14всв12490 0.0 1020219
14:00+14ююз42520 0.0 1020465
17:00+14зюз33601 0.0 1019291
20:00+13сз45700 0.0 101996
25 апреля, вс
вс2523:00+13ссв44620 0.0 101965
02:00+12св44610 0.0 101887
05:00+11св446068 0.0 101897
08:00+12св32553 0.0 1018110
11:00+14юз214965 0.0 1018258
14:00+14юз225699 0.0 1018289
17:00+14юз226057 0.0 1018247
20:00+14с22665 0.0 101724
26 апреля, пн
пн2623:00+14св1166100 0.0 101812
02:00+13в2266100 0.0 101817
05:00+13вюв2267100 0.0 101632
08:00+14юв226826 0.0 101774
11:00+14ююв456416 0.0 1017325
14:00+14ююв4666100 0.0 1016395
17:00+14юв466898 0.0 1015196
20:00+14вюв4570100 0.0 1014100